Home   Weather   Sultanpur   Past weeks

Flag for India Past Weather in Sultanpur, Uttar Pradesh, India — Yesterday and Last 2 Weeks

Now
72 °F

Haze.


Feels Like: 76 °F
Forecast: 54 / 78 °F
Wind: 3 mph from Southwest

Location: Lucknow / Amausi

Current Time: Jan 24, 2017 at 6:47:34 pm

Latest Report: Jan 24, 2017 at 6:00 pm


Visibility: 2 mi

Pressure: 30.04 "Hg

Humidity: 61%

Dew Point: 57 °F

Location of SultanpurLocation

Past Weather in Sultanpur — Graph

°F

Sultanpur Temperature Yesterday

Maximum temperature yesterday: 81 °F (at 1:30 pm)
Minimum temperature yesterday: 50 °F (at 5:30 am)
Average temperature yesterday: 65 °F

High & Low Weather Summary for the Past Weeks

 TemperatureHumidityPressure
High81 °F (Jan 23, 1:30 pm)100% (Jan 13, 7:30 am)30.21 "Hg (Jan 13, 7:30 am)
Low36 °F (Jan 12, 5:00 am)29% (Jan 10, 1:00 pm)29.83 "Hg (Jan 21, 12:00 am)
Average58 °F69%30.05 "Hg
* Reported Jan 9 6:00 pm — Jan 24 5:30 pm, Sultanpur, Weather by CustomWeather, © 2017

Note: Actual official high and low records may vary slightly from our data, if they occured in-between our weather recording intervals... More about our weather records

Advertising

Sultanpur Weather History for the Previous 24 Hours

Scroll right to see more
 ConditionsComfort  
Time TempWeatherWind HumidityBarometerVisibility
5:30 pm
Tue, Jan 24
73 °FHaze.3 mph57%30.04 "Hg1 mi
5:00 pm77 °FHaze.7 mph51%30.04 "Hg1 mi
4:30 pm79 °FHaze.7 mph45%30.04 "Hg1 mi
4:00 pm79 °FHaze.9 mph45%30.04 "Hg1 mi
3:30 pm81 °FHaze.12 mph42%30.04 "Hg1 mi
3:00 pm81 °FHaze.8 mph42%30.04 "Hg1 mi
2:30 pm81 °FHaze.8 mph42%30.04 "Hg1 mi
2:00 pm81 °FHaze.8 mph42%30.04 "Hg1 mi
1:30 pm79 °FHaze.8 mph45%30.07 "Hg1 mi
1:00 pm79 °FHaze.8 mph45%30.07 "Hg1 mi
12:30 pm77 °FHaze.8 mph44%30.09 "Hg1 mi
12:00 pm77 °FHaze.7 mph47%30.09 "Hg1 mi
11:00 am72 °FHaze.5 mph53%30.12 "Hg1 mi
10:30 am68 °FHaze.5 mph64%30.15 "Hg1 mi
10:00 am64 °FHaze.5 mph78%30.15 "Hg1 mi
9:30 am63 °FHaze.5 mph88%30.12 "Hg1 mi
9:00 am61 °FHaze.2 mph94%30.12 "Hg1 mi
8:00 am54 °FFog.2 mph100%30.09 "Hg1 mi
7:30 am52 °FFog.2 mph100%30.07 "Hg1 mi
7:00 am54 °FFog.2 mph94%30.07 "Hg1 mi
6:00 am52 °FFog.5 mph100%30.01 "Hg1 mi
5:00 am54 °FFog.5 mph94%30.01 "Hg1 mi
4:00 am54 °FFog.2 mph100%30.01 "Hg1 mi
2:00 am55 °FFog.3 mph94%30.04 "Hg1 mi
1:00 am55 °FFog.2 mph94%30.04 "Hg1 mi
12:00 am57 °FFog.2 mph88%30.04 "Hg1 mi
11:00 pm
Mon, Jan 23
59 °FFog.3 mph88%30.04 "Hg1 mi
10:00 pm63 °FFog.3 mph83%30.04 "Hg1 mi
9:00 pm63 °FFog.3 mph83%30.04 "Hg1 mi
7:30 pm66 °FHaze.3 mph73%30.01 "Hg1 mi
7:00 pm68 °FHaze.3 mph69%30.01 "Hg1 mi
6:30 pm70 °FHaze.6 mph64%30.01 "Hg1 mi
Weather by CustomWeather, © 2017

See weather overviewHow to use our weather pages